Regional Weather Roundup
Issued by NWS Cleveland, OH

Home | Current Version | Previous Version | Graphics & Text | Print | Product List | Glossary On
Versions: 1 2 3 4 5 6 7 8 9 10 11 12 13 14 15 16 17 18 19 20 21 22 23 24 25 26 27 28 29 30 31 32 33 34 35 36 37 38 39 40 41 42 43 44 45 46 47 48 49 50
599
ASUS41 KCLE 101812
RWRCLE
OHIO REGIONAL WEATHER ROUNDUP
NATIONAL WEATHER SERVICE WILMINGTON, OH
100 PM EST SAT DEC 10 2016

NOTE: "FAIR" INDICATES FEW OR NO CLOUDS BELOW 12,000 FEET WITH NO
SIGNIFICANT WEATHER AND/OR OBSTRUCTIONS TO VISIBILITY.

OHZ001>008-015>018-024>027-034-035-043-044-101900-
   NORTHWEST OHIO

CITY           SKY/WX    TMP DP  RH WIND       PRES   REMARKS
DEFIANCE       FAIR      27  14  58 SW9G16    30.47F WCI  18
FINDLAY        CLOUDY    26  13  57 W14       30.47F WCI  14
TOLEDO EXPRESS FAIR      28  14  55 SW16G22   30.45F WCI  16
TOLEDO EXEC    FAIR      29  15  56 W14G22    30.46F WCI  18
LIMA           CLOUDY    24  17  74 W14       30.46F WCI  12
$$

OHZ009>014-019>023-028>033-038-089-101900-
   NORTHEAST OHIO

CITY           SKY/WX    TMP DP  RH WIND       PRES   REMARKS
CLE-HOPKINS    PTSUNNY   30  15  53 SW15      30.47F WCI  19
CLE-LAKEFRONT  CLOUDY    27  16  63 W16G23    30.44F WCI  15
CUY CO. ARPT   PTSUNNY   28  18  64 W18G28    30.43F WCI  16
LORAIN-ELYRIA  CLOUDY    26  16  65 W15       30.46F WCI  14
ASHTABULA      SNOW      23  21  92 W13G21    30.41F VSB 1/4 WCI  11
AKRON-CANTON   PTSUNNY   26  14  60 W12       30.44F WCI  16
WOOSTER        CLOUDY    25  15  66 W12       30.45F WCI  14
MANSFIELD      CLOUDY    25  15  66 SW17      30.44F WCI  12
YOUNGSTOWN     PTSUNNY   27  15  61 SW13G22   30.40F WCI  16
$$

OHZ042-051>053-060>062-070>072-077>081-101900-
  SOUTHWEST OHIO

CITY           SKY/WX    TMP DP  RH WIND       PRES   REMARKS
CINC-COVINGTON PTSUNNY   28  16  60 W8        30.52F WCI  20
CINC-LUNKEN    CLOUDY    28  17  63 S5        30.57F WCI  23
HAMILTON       CLOUDY    29  18  63 W10       30.55F WCI  20
DAYTON         CLOUDY    25  15  66 W10       30.49F WCI  15
WRIGHT-PAT AFB CLOUDY    26  16  66 SW10      30.51F WCI  16
DAYTON GENERAL CLOUDY    25  17  72 SW8       30.49F WCI  16
WILMINGTON     CLOUDY    26  15  63 W13       30.51S WCI  15
$$

OHZ036-037-039>041-045>050-054>059-063>069-073>076-082>088-101900-
  CENTRAL AND SOUTHEAST OHIO

CITY           SKY/WX    TMP DP  RH WIND       PRES   REMARKS
COLUMBUS       CLOUDY    26  18  71 W10       30.50F WCI  16
OSU AIRPORT    CLOUDY    25  17  72 SW8       30.49F WCI  16
BOLTON FIELD   CLOUDY    27  16  63 W8        30.51F WCI  18
RICKENBACK AFB   N/A     27  16  62 W9        30.51F WCI  18
NEWARK         CLOUDY    25  19  78 W5        30.49F WCI  19
MARION         CLOUDY    25  14  63 W12       30.47F WCI  14
LANCASTER      CLOUDY    26  17  68 W7        30.51F WCI  18
ZANESVILLE     CLOUDY    27  16  63 W8        30.50F WCI  19
NEW PHILLY     CLOUDY    26  16  65 W8        30.48F WCI  18
$$




USA.gov is the U.S. government's official web portal to all federal, state and local government web resources and services.